7 * 24
多渠道服务支持
STARLINK-2720是美国太空探索技术公司Starlink卫星互联网项目的一员,于2021年5月26日发射升空。它属于星链第二代组网卫星,运行在近地轨道,旨在为全球范围提供高速卫星互联网接入服务,尤其服务偏远地区,也是美国构建近地轨道卫星星座的重要组成部分。
美国
(US)
| 数据来源 | 国际轨道数据 | AOE轨道数据 |
| 星历时间 | 2026-09-03T15:59:28+0800 19小时前 查看轨道信息 | 2026-08-31T15:00:00+0800 3天前 查看轨道信息 |
| 半长轴 | 6848.859km | 6848.905km |
| 偏心率 | 0.0001273 | 0.0001109 |
| 轨道倾角 | 53.163° | 53.160° |
| 近地点辐角 | 67.791° | 64.947° |
| 升交点赤经 | 7.184° | 21.343° |
| 平近点角 | 292.323° | 75.688° |
| 近地点 | 469.85km | 470.008km |
| 远地点 | 471.594km | 471.528km |
| 周期 | 94.013分钟 | 94.014分钟 |
| 每日圈数 | 15.317063 | 15.316907 |
| 事件ID | 空间交会对象 | 最接近时刻(TCA) | 交会距离 | 交会风险概率(CRP) | 交会风险指数(CRI) | 操作 |
|---|---|---|---|---|---|---|
| CDM_260830-162104-865306-489022 |
STARLINK-2720
(48653)
OBJECT Q
(64890) | 2026-08-30T 16:21:43+0000 |
2.223 km
极远距离 | 2.215884E-6 低风险 | 0.42 | |
| CDM_260904-210804-865306-860621 |
STARLINK-2720
(48653)
STARLINK-37253
(68606) | 2026-09-04T 21:08:51+0000 |
2.137 km
极远距离 | 2.013469E-6 低风险 | 0.41 | |
| CDM_260827-181104-865306-527321 |
STARLINK-2720
(48653)
STARLINK-34922
(65273) | 2026-08-27T 18:11:19+0000 |
2.822 km
极远距离 | 1.315051E-6 低风险 | 0.37 | |
| CDM_260903-080604-865306-238622 |
STARLINK-2720
(48653)
TOMORROW-S4
(62386) | 2026-09-03T 08:06:10+0000 |
2.729 km
极远距离 | 1.274857E-6 低风险 | 0.37 | |
| CDM_260904-193704-865306-904621 |
STARLINK-2720
(48653)
STARLINK-37666
(69046) | 2026-09-04T 19:37:15+0000 |
2.881 km
极远距离 | 1.246784E-6 低风险 | 0.37 | |
| CDM_260829-052104-865306-903221 |
STARLINK-2720
(48653)
STARLINK-37596
(69032) | 2026-08-29T 05:21:15+0000 |
2.797 km
极远距离 | 1.11626E-6 低风险 | 0.36 |